SL-24 DEB, 36510

Orbit data source: Space-Track

SL-24 DEB, 36510 is space debris in LEO originally from a launch on Thu, 08 Apr 2010 UTC launched from the Tyuratam Missile And Space Complex (TTMTR). Debris objects in space refer to the collection of defunct objects orbiting the Earth. Examples of debris include non-operational satellites, rocket bodies, and fragments generated from explosions, collisions, or faulty payload assembly.

Loading next visibility...
Identifier
36510, 2010-013C
Orbit
LEO
Country
Flag of CISCIS
Related business
Manufacturer
Yuzhnoe
Mission
Spacecraft
Bus & Motor
Unknown
Mass
~50 kg wet, ~50 kg dry
Launch date (UTC)
2010-04-08 (16 years ago)
Launch vehicle
Unknown
Launch site
Tyuratam Missile And Space Complex (TTMTR)
Object type
Payload
Rocket body
Debris
Shape & HBR
Cone, 1.3 m
Radar Cross Section
3.971 m², Large (>1 m²)

Expand to show TLE details & history
Last TLE update: 6 hours ago

TLE from 6 hours ago
0 SL-24 DEB
1 36510U 10013C   26121.43500975  .00003452  00000-0  50887-3 0  9990
2 36510  92.0234 293.5105 0019552 175.7596 184.3793 14.75218193857606
Epoch: 2026-05-01T10:26Z
TLE epoch observation values (Epoch: 2026-05-01T10:26:24.842Z)
Latitude
-0.00008°
Longitude
-82.46031°
Altitude
661.278 km
Speed
7.519 km/s
True Right ascension
19h 34m 02s
True Declination
0° 00' 00"
Sunlit
Object was in daylight at epoch
Visualization orbit readout
Latitude
Unknown
Longitude
Unknown
Altitude
Unknown
Speed
Unknown
Apparent Right ascension
Unknown
Apparent Declination
Unknown
Sunlit
N/A
Visualization observer readout
Local Sidereal Time
23:55:55
Azimuth
Unknown
Elevation
Unknown
Doppler factor
Unknown
Orbital elements
Apogee altitude
655.065 km
Perigee altitude
627.616 km
Semi-major axis
7,019.477 km
Eccentricity
0.00196
Inclination
92.0234°
RAAN
293.5105°
Arg. of periapsis
175.7596°
True anomaly
184.36223°
Mean anomaly
184.3793°
Eccentric anomaly
184.37076°
Mean motion
3.69051 °/min
Orbital period
97.55 mins
BSTAR
0.00050887
Loading maneuver chart data...
Computing Atmospheric mass density...
Loading historical data...
Loading historical data...
Loading historical data...
Loading historical data...
Loading historical data...
Loading historical data...
Loading historical data...
Other satellites on launch #13 in the year 2010 (2010-04-08 UTC)

Documentation

Showing up to 5 results
|